Skip Page Navigation
NASA JPL Caltech
NASA Logo - Jet Propulsion Laboratory + View the NASA Portal
+ Center for Near-Earth Object Studies
JPL Home Earth Solar System Stars & Galaxies Technology
JPL Solar System Dynamics
BODIES ORBITS EPHEMERIDES TOOLS PHYSICAL DATA DISCOVERY FAQ SITE MAP
JPL Small-Body Database Browser
Search: [ help ]  
97628 (2000 EW133)
Classification: Main-belt Asteroid          SPK-ID: 2097628
Ephemeris | Orbit Diagram | Orbital Elements | Mission Design | Physical Parameters | Discovery Circumstances | Close-Approach Data ]

[ show orbit diagram ]
Orbital Elements at Epoch 2459000.5 (2020-May-31.0) TDB
Reference: JPL 21 (heliocentric ecliptic J2000)
 Element Value Uncertainty (1-sigma)   Units 
e .08157525051324671 4.1945e-08  
a 2.290088869543323 1.1934e-08 au
q 2.103274296312728 9.6538e-08 au
i 8.312119618276986 4.5237e-06 deg
node 78.24025269916251 3.4331e-05 deg
peri 166.8457485354226 4.5453e-05 deg
M 247.1039787975079 3.1067e-05 deg
tp 2459397.465776249754
(2021-Jul-01.96577625)
0.00011011 TDB
period 1265.834507963659
3.47
9.8943e-06
2.709e-08
d
yr
n .2843973661131501 2.223e-09 deg/d
Q 2.476903442773917 1.2907e-08 au
  Orbit Determination Parameters
   # obs. used (total)      630  
   data-arc span      12387 days (33.91 yr)  
   first obs. used      1986-03-04  
   last obs. used      2020-02-01  
   planetary ephem.      DE431  
   SB-pert. ephem.      SB431-N16  
   condition code      0  
   norm. resid. RMS      .58661  
   source      ORB  
   producer      Otto Matic  
   solution date      2020-Feb-24 00:20:23  

Additional Information
 Earth MOID = 1.0903 au 
 Jupiter MOID = 2.53448 au 
 T_jup = 3.581 
[ show covariance matrix ]

Ephemeris | Orbit Diagram | Orbital Elements | Mission Design | Physical Parameters | Discovery Circumstances | Close-Approach Data ]

Physical Parameter Table
Parameter Symbol Value Units Sigma Reference Notes
absolute magnitude H 16.0   n/a MPO453426  

97628 (2000 EW133)          Discovered 2000-Mar-11 by LONEOS at Anderson Mesa
Reference: 20050224/Numbers.arcLast Updated: 2005-02-28

[ show close-approach data ]
Ephemeris | Orbit Diagram | Orbital Elements | Mission Design | Physical Parameters | Discovery Circumstances | Close-Approach Data ]
ABOUT SSD CREDITS/AWARDS PRIVACY/COPYRIGHT GLOSSARY LINKS
FirstGov 2020-Jul-15 06:45 UT
(server date/time)  
NASA Home Page
Site Manager:   Ryan S. Park
Webmaster  Alan B. Chamberlin